Location: Haliburton Scout Reserve
(45.0900°N, 78.3200°W)
Time: 04:32:52
(UTC-04:00)

AIST 2D - Visible Passes

Search period start: 16 May 2022 00:00
Search period end: 26 May 2022 00:00
Orbit: 439 x 449 km, 97.1° (Epoch: 16 May)

Date Brightness Start Highest point End Pass type
(mag) Time Alt. Az. Time Alt. Az. Time Alt. Az.
16 May ? 22:14:30 10° NE 22:17:17 23° E 22:17:28 23° E visible
16 May ? 23:47:15 10° NNW 23:49:51 21° WNW 23:51:00 18° W visible
17 May ? 23:09:55 10° N 23:13:16 59° WNW 23:13:58 46° SW visible
18 May ? 22:33:14 10° NNE 22:36:28 41° E 22:36:54 39° ESE visible
19 May ? 00:07:11 10° NW 00:08:46 13° WNW 00:10:22 10° W visible
19 May ? 21:57:28 10° NE 21:59:27 15° E 21:59:48 14° E visible
19 May ? 23:29:09 10° N 23:32:14 33° WNW 23:33:19 26° WSW visible
20 May ? 22:52:05 10° NNE 22:55:28 78° ESE 22:56:11 52° S visible
21 May ? 22:15:40 10° NE 22:18:29 24° E 22:19:01 23° ESE visible
21 May ? 23:48:30 10° NNW 23:51:02 20° WNW 23:52:33 15° WSW visible
22 May ? 23:10:59 10° N 23:14:18 57° WNW 23:15:21 37° SW visible
23 May ? 22:34:08 10° NNE 22:37:22 42° E 22:38:08 36° SE visible
24 May ? 00:08:11 10° NW 00:09:39 12° WNW 00:11:06 10° W visible
24 May ? 21:58:11 10° NE 22:00:12 15° E 22:00:53 14° ESE visible
24 May ? 23:29:56 10° N 23:32:58 32° WNW 23:34:24 22° WSW visible
25 May ? 22:52:42 10° NNE 22:56:04 80° E 22:57:07 41° S visible
